Location: Mountain View
(42.7042°N, 73.6523°W)
Time: 05:31:48
(UTC+00:00)

Daily predictions for brighter satellites

Satellite Brightness Start Highest point End
(mag) Time Altitude Azimuth Time Altitude Azimuth Time Altitude Azimuth
Cosmos 1954 Rocket 4.1 00:00:36 10° SSW 00:05:51 71° WNW 00:06:16 68° NW
RESURS DK-1 3.7 00:02:33 10° NW 00:05:59 37° W 00:05:59 37° W
Resurs 01 Rocket 4.2 00:12:18 12° NNW 00:12:18 12° NNW 00:12:38 10° NNW
Okean 2 Rocket 3.9 00:04:19 10° SSW 00:08:01 47° WSW 00:08:01 47° WSW
Nadezhda 4 Rocket 4.4 00:03:23 10° NNW 00:09:36 62° W 00:15:41 10° S
COSMOS 2406 4.1 00:04:19 10° NNW 00:07:52 38° N 00:07:52 38° N
ATLAS 2AS CENTAUR R/B 4.0 00:06:49 10° NNW 00:10:49 25° NNE 00:10:49 25° NNE
ISS -0.6 00:13:29 10° W 00:14:17 15° WNW 00:14:17 15° WNW
SJ 16-02 2.8 00:12:27 10° SW 00:15:05 32° WSW 00:15:05 32° WSW
USA 281 4.2 01:07:16 42° WNW 01:07:16 42° WNW 01:11:48 10° NNW
ACS3 Solar Sail 4.4 07:36:11 10° NNE 07:36:21 11° NNE 07:36:21 11° NNE
Cosmos 2278 Rocket 3.9 08:43:28 23° SSE 08:43:28 23° SSE 08:45:29 10° SSE
Cosmos 2237 Rocket 3.4 08:43:08 34° NNE 08:43:08 34° NNE 08:46:16 10° NNE
SJ 16-02 3.8 08:41:28 18° NE 08:41:43 18° ENE 08:44:39 10° ESE
Cosmos 1943 Rocket 4.1 08:46:29 18° SSE 08:46:29 18° SSE 08:47:52 10° SSE
USA 267 3.2 08:46:29 10° NE 08:53:02 73° SE 08:53:32 70° S
ATLAS 3B R/B 4.2 08:56:30 10° S 09:03:07 37° ESE 09:10:06 10° NE
Meteor 2-16 Rocket 4.4 09:03:06 64° S 09:04:07 82° E 09:10:17 10° N
CENTAUR R/B 4.4 09:01:19 17° NNW 09:06:53 36° NE 09:15:12 10° ESE
ADEOS Rocket 4.3 09:12:47 10° N 09:16:31 30° NNW 09:16:31 30° NNW
Cosmos 2292 Rocket 3.9 09:20:13 80° SSW 09:20:31 87° W 09:26:45 10° N
ACS3 Solar Sail 3.6 09:19:20 10° N 09:20:28 15° NNW 09:20:28 15° NNW
Cosmos 1656 Rocket 4.4 09:24:18 20° N 09:28:08 52° ENE 09:33:38 10° SE
USA 234 3.7 09:22:13 10° ESE 09:28:35 55° NNE 09:31:50 29° NNW
Cosmos 1864 Rocket 4.5 09:30:11 45° NW 09:31:49 59° W 09:38:01 10° S
Cosmos 1420 Rocket 4.0 09:38:44 57° NW 09:38:44 57° NW 09:43:46 10° NNE
Cosmos 2061 Rocket 3.9 09:32:29 10° N 09:38:43 88° E 09:44:55 10° S
Cosmos 1624 Rocket 3.9 09:34:26 14° SSW 09:38:50 84° ESE 09:44:02 10° NNE
Cosmos 2251 Rocket 3.4 09:38:22 49° NW 09:39:46 73° WSW 09:45:05 10° S
SL-16 R/B 2.4 09:38:27 10° SSW 09:44:06 70° ESE 09:49:46 10° NNE
PAYLOAD A 4.1 09:40:03 10° N 09:45:14 53° WNW 09:45:53 50° W
Cosmos 1725 Rocket 4.1 09:40:05 10° NNW 09:46:09 50° W 09:52:09 10° SSW
Cosmos 2233 Rocket 3.9 09:41:56 10° NNW 09:48:13 71° W 09:54:23 10° S
Cosmos 1447 Rocket 4.5 09:44:53 10° S 09:51:08 86° E 09:57:29 10° N
BREEZE-M DEB (TANK) 3.0 09:54:02 30° SSE 09:54:26 32° SE 09:57:21 10° E
USA 306 4.0 09:56:43 22° N 09:56:43 22° N 09:58:45 10° NE
CZ-2C R/B 3.5 09:55:18 10° N 09:58:22 28° NW 09:58:22 28° NW
Cosmos 2346 Rocket 4.3 09:56:11 10° SSW 10:02:19 75° W 10:08:25 10° N
SJ-11-01 4.1 09:59:17 10° N 10:03:58 70° WNW 10:08:37 10° SSW
Okean 2 Rocket 4.4 10:12:37 10° N 10:16:47 41° ENE 10:20:55 10° SSE
BREEZE-M DEB (TANK) 4.4 10:09:59 22° W 10:17:50 69° N 10:22:08 10° E
Cosmos 1190 Rocket 4.4 10:15:29 24° NW 10:17:59 38° WSW 10:22:46 10° S
SJ 16-02 1.6 10:18:05 26° NW 10:20:04 44° WSW 10:24:07 10° S
SKYMED 2 3.5 10:16:02 10° S 10:20:21 72° WSW 10:24:43 10° NNW
Cosmos 676 Rocket 4.0 10:15:43 12° NNW 10:20:30 61° WSW 10:25:35 10° S
Aureole 3 4.2 10:14:57 10° SSW 10:20:46 52° W 10:25:41 10° N
Cosmos 2278 Rocket 4.1 10:25:23 11° WSW 10:25:23 11° WSW 10:25:53 10° SW
COSMO-SKYMED 1 2.4 10:19:00 10° SSE 10:23:07 86° ENE 10:27:15 10° NNW
Cosmos 2237 Rocket 3.5 10:24:59 19° NW 10:25:16 19° NW 10:29:15 10° N
Cosmos 2056 Rocket 4.1 10:22:47 10° SW 10:27:46 37° WNW 10:32:45 10° N
Cosmos 2297 3.7 10:25:01 10° NNW 10:30:42 83° ENE 10:36:19 10° SSE
USA 229 DEB 3.4 10:26:34 10° SW 10:32:24 69° NW 10:38:58 10° NNE
USA 229 3.4 10:26:47 10° SW 10:32:36 70° NW 10:39:11 10° NNE
Cosmos 1025 Rocket 3.5 10:28:59 10° S 10:33:16 65° E 10:37:36 10° NNE
Cosmos 1943 3.7 10:29:15 10° S 10:34:46 64° ESE 10:40:19 10° NNE
Cosmos 2369 Rocket 2.2 10:30:01 10° NNW 10:35:44 88° WSW 10:41:27 10° SSE
USA 267 3.7 10:29:43 10° NE 10:35:46 42° NNW 10:40:54 14° W
Cosmos 1674 Rocket 3.5 10:34:35 10° SSW 10:39:00 77° W 10:43:27 10° N
IRS-1D 3.8 10:36:11 10° N 10:40:46 40° WNW 10:45:20 10° SW
Lacrosse 5 rocket 2.8 10:38:13 10° NNW 10:40:54 21° NNE 10:43:30 10° E
Cosmos 1484 Rocket 2.5 10:38:56 10° NNE 10:42:29 87° ESE 10:45:59 10° SSW
Cosmos 1400 Rocket 2.5 10:39:43 10° NNW 10:43:24 67° W 10:47:00 10° S
SWARM A 4.4 10:41:34 10° SSW 10:44:47 47° W 10:48:00 10° N
Cosmos 1869 4.4 10:47:38 16° WNW 10:48:45 19° W 10:51:16 10° SW
Cosmos 371 Rocket 4.2 10:45:36 11° NW 10:49:31 28° W 10:53:37 10° SSW
Lacrosse 4 Rocket 3.5 10:46:42 10° N 10:49:45 21° NE 10:52:45 10° E
Helios 1A Rocket 3.2 10:47:02 10° SSW 10:50:03 30° W 10:53:04 10° NW
Cosmos 2221 Rocket 3.6 10:45:52 10° S 10:50:24 89° ESE 10:54:58 10° N
Cosmos 968 Rocket 3.5 10:47:06 10° NNW 10:52:18 66° WSW 10:57:29 10° S
ATLAS 3B R/B 3.1 10:46:15 10° SW 10:53:38 57° NW 11:01:23 10° NNE
Cosmos 1812 3.4 10:53:54 15° WNW 10:55:11 19° W 10:57:18 10° SW
Cosmos 1741 Rocket 4.0 10:51:07 10° NNW 10:56:27 83° WSW 11:01:44 10° SSE
CENTAUR R/B 3.4 10:49:53 10° NW 10:58:26 80° WSW 11:07:55 10° SSE
Cosmos 1455 Rocket 4.2 10:54:33 10° N 10:58:45 45° ENE 11:02:56 10° SSE
Cosmos 2151 Rocket 3.8 10:54:54 10° NNW 10:59:15 51° W 11:03:33 10° S
Cosmos 1110 Rocket 4.3 10:58:08 10° SW 11:03:12 46° WNW 11:08:20 10° N
Cosmos 1378 Rocket 4.4 11:03:05 10° SW 11:06:42 27° WNW 11:10:22 10° NNW
Cosmos 1302 Rocket 4.2 11:01:41 10° SSW 11:06:49 78° ESE 11:12:01 10° NNE
Sich 1 Rocket 3.6 11:02:21 10° NNW 11:06:52 67° W 11:11:17 10° S
Thor Agena Rocket 3.7 11:06:04 10° NNE 11:11:17 83° ESE 11:16:24 10° SSW
USA 234 3.7 11:05:18 10° SSE 11:11:37 49° SW 11:17:57 10° WNW
Cosmos 1818 3.8 11:09:45 10° SSW 11:15:09 81° ESE 11:20:38 10° NE
Okean 1 Rocket 3.2 11:12:04 10° NNW 11:16:16 52° W 11:20:25 10° S
Tsikada Rocket 4.2 11:11:50 10° S 11:18:08 83° E 11:24:34 10° N
Cosmos 332 Rocket 3.9 11:13:51 10° NNW 11:18:32 54° WSW 11:23:08 10° S
CZ-3 R/B 3.3 11:11:44 10° WSW 11:19:52 24° SSW 11:24:02 10° SE
